Simultaneous Nadir Overpasses (SNOs) Predictions

Prediction of SNOs between METOP-A and NOAA-19 Satellite Orbit:

Table of predicted SNOs for the next 14.0 days since TLE Epoch: 9/19/2015
Index Date (METOP-A) Time (METOP-A) Lat,Lon (METOP-A) SZA (METOP-A ) Date (NOAA-19) Time (NOAA-19) Lat,Lon (NOAA-19) SZA (NOAA-19 ) Distance(km) Time Diff (sec)
1 09/29/2015 13:30:58 75.43, -25.00 77.77 09/29/2015 13:29:50 75.41, -24.96 77.75 1.98 68
2 09/29/2015 14:21:40 -75.41, 142.27 102.24 09/29/2015 14:20:49 -75.43, 142.23 102.22 3.01 51
3 09/29/2015 15:12:20 75.41, -50.40 77.77 09/29/2015 15:11:52 75.39, -50.40 77.76 1.86 28
4 09/29/2015 16:03:02 -75.39, 116.86 102.24 09/29/2015 16:02:50 -75.36, 116.94 102.26 3.11 12
5 09/29/2015 16:53:42 75.38, -75.81 77.78 09/29/2015 16:53:54 75.37, -75.84 77.76 2.10 12
6
